Location: Cerezo de Arriba
(41.2389°N, 3.5585°W)
Time: 03:47:19
(UTC+00:00)

Lacrosse 4 Rocket - Pass Details

Date: 19 May 2025
Orbit: 513 x 576 km, 68.0° (Epoch: 23 June)

Event Time Altitude Azimuth Distance (km) Brightness Sun altitude
Rises 20:14:10 0° 237° (WSW) 2,622 5.1 -7.9°
Reaches altitude 10° 20:16:37 10° 251° (WSW) 1,746 4.4 -8.3°
Maximum altitude 20:19:49 24° 307° (NW) 1,109 4.0 -8.8°
Drops below altitude 10° 20:23:06 10° 3° (N) 1,779 4.4 -9.3°
Sets 20:25:37 0° 17° (NNE) 2,685 5.1 -9.6°
